Location: Unspecified
(0.0000°N, 0.0000°E)
Time: 06:50:30
(UTC+01:00)

Cosmos 773 Rocket - Visible Passes

Search period start: 20 December 2014 00:00
Search period end: 30 December 2014 00:00
Orbit: 747 x 777 km, 74.1° (Epoch: 18 December)

Date Brightness Start Highest point End Pass type
(mag) Time Alt. Az. Time Alt. Az. Time Alt. Az.
20 Dec 6.6 06:11:30 10° NE 06:14:45 17° ENE 06:18:01 10° ESE visible
21 Dec 6.5 19:45:23 10° SW 19:49:13 21° WNW 19:53:03 10° NNW visible
23 Dec 5.9 05:55:45 10° NNE 06:00:09 29° ENE 06:04:34 10° SE visible
24 Dec 6.7 05:19:02 10° NE 05:21:24 13° ENE 05:23:46 10° ESE visible
24 Dec 7.0 19:32:49 10° W 19:34:37 12° WNW 19:36:25 10° WNW visible
25 Dec 3.9 06:19:09 10° NNW 06:24:16 74° WSW 06:29:26 10° S visible
26 Dec 4.8 05:40:35 10° N 05:45:31 50° ENE 05:50:31 10° SSE visible
27 Dec 6.1 05:02:47 10° NNE 05:06:47 23° ENE 05:10:48 10° SE visible
28 Dec 4.4 06:05:22 13° NW 06:09:39 42° WSW 06:14:32 10° S visible
29 Dec 3.9 05:28:14 29° N 05:30:54 87° ENE 05:36:06 10° SSE visible
